Location: Boncourt
(49.6160°N, 3.9448°E)
Time: 00:19:29
(UTC+00:00)

Cosmos 2315 Rocket - Pass Details

Date: 09 February 2023
Orbit: 965 x 1002 km, 82.9° (Epoch: 21 March)

Event Time Altitude Azimuth Distance (km) Brightness Sun altitude
Rises 18:04:55 0° 162° (SSE) 3,701 6.9 -12.1°
Reaches altitude 10° 18:07:34 10° 156° (SSE) 2,760 6.2 -12.5°
Maximum altitude 18:13:25 41° 88° (E) 1,416 4.4 -13.5°
Drops below altitude 10° 18:19:20 10° 21° (NNE) 2,787 6.1 -14.4°
Sets 18:22:00 0° 15° (NNE) 3,741 6.9 -14.8°
